Location: Newark
(45.8667°N, 9.7333°E)
Time: 03:27:45
(UTC+00:00)

A-11 Canister half - Pass Details

Date: 29 January 2020
Orbit: 1517 x 1683 km, 47.2° (Epoch: 17 February)

Event Time Altitude Azimuth Distance (km) Brightness Sun altitude
Rises 18:47:53 0° 167° (SSE) 4,797 11.5 -25.5°
Enters shadow 18:51:18 - 152° (SSE) 4,166 11.0 -26.1°
Reaches altitude 10° 18:55:04 10° 131° (SE) 3,768 - -26.7°
Maximum altitude 18:56:32 10° 122° (ESE) 3,724 - -27.0°
Drops below altitude 10° 18:58:01 10° 113° (ESE) 3,751 - -27.2°
Sets 19:04:59 0° 77° (ENE) 4,700 - -28.5°
